Track GONETS M-7 now! 10-day predictions GONETS M-7 is classified as:
1 39251U 13048C 22175.80035189 .00000015 00000-0 33806-4 0 9997 2 39251 82.4878 171.5422 0017532 136.6455 223.6014 12.42984273398470